Погода в Моджокерто

Индонезия     7°28′12″S   112°26′16″E
темп.,
°C
ветер,
м/с
пор.,
м/с
влажн.,
%
обл.,
%
осадки,
мм/ч
давл.,
гПа
погр.,
м
2 марта, вт
вт201:00+24ююз118765 0.1 101024
04:00+23юз229028 0.0 100932
07:00+25зюз238628 0.0 1010171
10:00+30сз33665 0.0 1011825
13:00+31сз34678 1.9 10081116
16:00+28сз248476 8.9 1007365
19:00+25зюз118784 10.8 101028
22:00+24ююз128965 0.1 101227
3 марта, ср
ср301:00+23ююз238771 0.2 101046
04:00+23зюз228944 0.0 100934
07:00+25юз118434 0.0 1011120
10:00+30св126430 0.0 1011704
13:00+32ссз326015 0.3 10081326
16:00+28з128155 9.1 1007327
19:00+25сз119177 16.9 101037
22:00+24юв1189100 2.8 101224
4 марта, чт
чт401:00+24юз1288100 2.8 101124
04:00+23зюз2289100 0.0 101055
07:00+24зюз3687100 0.1 1012247
10:00+29з3572100 0.0 1012730
13:00+31сз446283 0.5 10091223
16:00+29зсз247989 3.6 1008570
19:00+25вюв239094 9.1 101157
22:00+24ююз0187100 0.3 101224
5 марта, пт
пт501:00+23зюз1189100 0.3 101123
04:00+22юз1287100 0.0 101035
07:00+25ююз1179100 0.0 101269
10:00+29ссз1165100 0.0 1011721
13:00+32сз235382 0.1 10091417
16:00+29ссв127486 1.5 1008340
19:00+25в228593 2.9 101034
22:00+24вюв119097 0.0 101124
6 марта, сб
сб601:00+23юв118894 0.0 101023
04:00+23ююз118984 0.0 100923
07:00+25зюз118582 0.0 1011132
10:00+29ссз217210 1.1 1011688
13:00+30с227023 4.3 1008911
16:00+27ссз238453 9.5 1008453
19:00+24ююз228977 12.9 101128
22:00+24юз2286100 0.1 101125